Showing default

ESEO, 43792

Orbit data source: Space-Track

ESEO, 43792 is a payload satellite owned by ESA (ESA) in SSO that was launched on Mon, 03 Dec 2018 UTC via an FALCON 9 launch vehicle from the Air Force Western Test Range (AFWTR). Payload-class satellites include a variety of spacecraft equipped with specific instruments for various scientific and technological missions. These include communications satellites like Starlink; space stations such as the ISS; scientific satellites like the Hubble; Earth observation satellites from companies like Planet Labs, Umbra, and HawkEye 360; GPS; miniature CubeSats for education and research; and military/defense satellites.

Loading next visibility...
Identifier
43792, 2018-099AL
Orbit
SSO
Country
Flag of ESAESA
Related business
Manufacturer
ESTEC/OHBI
Mission
Operational Civil Technology
Bus & Motor
ESEO, Unknown motor
Mass
120 kg wet, 120 kg dry
Launch date (UTC)
2018-12-03 (8 years ago)
Launch vehicle
FALCON 9
Launch site
Air Force Western Test Range (AFWTR)
Object type
Payload
Rocket body
Debris
Shape & HBR
Box, 0.3 m
Radar Cross Section
0.262 m², Medium (>0.1 m² and < 1m²)

Expand to show TLE details & history
Last TLE update: 1 day ago

TLE from 1 day ago
0 ESEO
1 43792U 18099AL  26235.02936665  .00001326  00000-0  98878-4 0  9993
2 43792  97.3943 269.5478 0013861 103.7198 256.5573 15.04421194421855
Epoch: 2026-08-23T00:42Z
TLE epoch observation values (Epoch: 2026-08-23T00:42:17.278Z)
Latitude
Longitude
-72.35548°
Altitude
558.599 km
Speed
7.581 km/s
True Right ascension
17h 58m 11s
True Declination
0° 00' 00"
Sunlit
Object was in full shadow at epoch
Visualization orbit readout
Latitude
Unknown
Longitude
Unknown
Altitude
Unknown
Speed
Unknown
Apparent Right ascension
Unknown
Apparent Declination
Unknown
Sunlit
N/A
Visualization observer readout
Local Sidereal Time
20:01:07
Azimuth
Unknown
Elevation
Unknown
Doppler factor
Unknown
Orbital elements
Apogee altitude
559.873 km
Perigee altitude
540.666 km
Semi-major axis
6,928.406 km
Eccentricity
0.00139
Inclination
97.3943°
RAAN
269.5478°
Arg. of periapsis
103.7198°
True anomaly
256.40288°
Mean anomaly
256.5573°
Eccentric anomaly
256.48008°
Mean motion
3.76351 °/min
Orbital period
95.66 mins
BSTAR
0.000098878
Loading maneuver chart data...
Computing Atmospheric mass density...
Loading historical data...
Loading historical data...
Loading historical data...
Loading historical data...
Loading historical data...
Loading historical data...
Loading historical data...

Documentation

Showing up to 5 results
|